Tracking 19176 objects as of 27-May-2018
HD Live streaming from Space Station
objects crossing your sky now

NANOSAT 1B

Track NANOSAT 1B now!
10-day predictions
NANOSAT 1B is classified as:


NORAD ID: 35685
Int'l Code: 2009-041E
Perigee: 582.0 km
Apogee: 665.2 km
Inclination: 98.3 °
Period: 97.0 minutes
Semi major axis: 6994 km
RCS: 0.248 m2 (medium)
Launch date: July 29, 2009
Source: Spain (SPN)
Launch site: TYURATAM MISSILE AND SPACE COMPLEX (TTMTR)

Nanosat 1B is a small testbed for the Spanish space agency. The satellite, stretching about 20 inches [50 cm] in diameter, will demonstrate basic space technologies.
aabbcc
Your satellite tracking list
Your tracking list is empty




NASA's NSSDC Master Catalog

Two Line Element Set (TLE):
1 35685U 09041E   18146.93394113 +.00000090 +00000-0 +17751-4 0  9998
2 35685 098.2773 138.4354 0059495 021.6910 338.6803 14.84090499477191
Source of the keplerian elements: AFSPC